Weather History for KEAR - February, 2014

Change the Weather History Date:

Wednesday, February 19, 2014

  Actual Average Record
Temperature  
Mean Temperature 40 °F 29 °F  
Max Temperature 55 °F 41 °F 70 °F (1943)
Min Temperature 25 °F 18 °F -15 °F (1978)
Degree Days  
Heating Degree Days 25 36  
Month to date heating degree days 723  
Since 1 July heating degree days 4617  
Cooling Degree Days 0 0  
Month to date cooling degree days 0  
Year to date cooling degree days 0  
Moisture  
Dew Point 21 °F    
Average Humidity 55    
Maximum Humidity 81    
Minimum Humidity 28    
Precipitation  
Precipitation 0.00 in - 1.45 in (1971)
Sea Level Pressure  
Sea Level Pressure 29.77 in    
Wind  
Wind Speed 11 mph (South)    
Max Wind Speed 24 mph    
Max Gust Speed 30 mph    
Visibility 10 miles    
Events      
T = Trace of Precipitation, MM = Missing Value Source: NWS Daily Summary

Daily Weather History Graph

Daily Weather History Graph

Search for Another Location

Airport or City:

Trip Planner

Search our weather history database for the weather conditions in past years. The results will help you decide how hot, cold, wet, or windy it might be!

Date:

Astronomy

Feb. 19, 2014 Rise Set
Actual Time 7:24 AM CST 6:15 PM CST
Civil Twilight 6:56 AM CST 6:43 PM CST
Nautical Twilight 6:24 AM CST 7:15 PM CST
Astronomical Twilight 5:53 AM CST 7:47 PM CST
Moon 11:12 PM CST (2/19) 9:29 AM CST (2/19)
Length of Visible Light 11h 46m
Length of Day
10h 51m
Waning Gibbous, 79% of the Moon is Illuminated
Feb 19
Waning Gibbous
Feb 22
Last Quarter
Mar 1
New
Mar 8
First Quarter
Mar 16
Full

Hourly Weather History & Observations

Time (CST) Temp. Windchill Dew Point Humidity Pressure Visibility Wind Dir Wind Speed Gust Speed Precip Events Conditions
12:15 AM 30.2 °F 26.7 °F 17.6 °F 60% 29.99 in 10.0 mi West 3.5 mph - N/A   Clear
12:35 AM 30.2 °F - 17.6 °F 60% 29.98 in 10.0 mi Calm Calm - N/A   Clear
12:55 AM 26.6 °F - 17.6 °F 69% 29.98 in 10.0 mi Calm Calm - N/A   Clear
1:15 AM 26.6 °F - 19.4 °F 74% 29.97 in 10.0 mi Calm Calm - N/A   Clear
1:35 AM 28.4 °F - 19.4 °F 69% 29.96 in 10.0 mi Calm Calm - N/A   Clear
1:55 AM 26.6 °F - 17.6 °F 69% 29.96 in 10.0 mi Calm Calm - N/A   Clear
2:15 AM 26.6 °F 21.2 °F 17.6 °F 69% 29.96 in 10.0 mi WNW 4.6 mph - N/A   Clear
2:35 AM 24.8 °F 19.1 °F 17.6 °F 74% 29.96 in 10.0 mi SW 4.6 mph - N/A   Clear
2:55 AM 24.8 °F 16.9 °F 17.6 °F 74% 29.95 in 10.0 mi SW 6.9 mph - N/A   Clear
3:15 AM 28.4 °F 20.4 °F 17.6 °F 64% 29.95 in 10.0 mi WSW 8.1 mph - N/A   Clear
3:35 AM 30.2 °F 22.6 °F 17.6 °F 60% 29.94 in 10.0 mi West 8.1 mph - N/A   Clear
3:55 AM 30.2 °F 24.3 °F 17.6 °F 60% 29.94 in 10.0 mi WSW 5.8 mph - N/A   Clear
4:15 AM 28.4 °F 23.3 °F 17.6 °F 64% 29.94 in 10.0 mi WSW 4.6 mph - N/A   Clear
4:35 AM 28.4 °F 20.4 °F 19.4 °F 69% 29.94 in 10.0 mi WSW 8.1 mph - N/A   Clear
4:55 AM 28.4 °F 23.3 °F 17.6 °F 64% 29.94 in 10.0 mi SW 4.6 mph - N/A   Clear
5:15 AM 28.4 °F 20.4 °F 17.6 °F 64% 29.93 in 10.0 mi SW 8.1 mph - N/A   Clear
5:35 AM 24.8 °F 17.9 °F 17.6 °F 74% 29.93 in 10.0 mi SW 5.8 mph - N/A   Clear
5:55 AM 24.8 °F 17.9 °F 17.6 °F 74% 29.92 in 10.0 mi SW 5.8 mph - N/A   Clear
6:15 AM 24.8 °F 17.9 °F 17.6 °F 74% 29.92 in 10.0 mi SW 5.8 mph - N/A   Clear
6:35 AM 24.8 °F 19.1 °F 17.6 °F 74% 29.91 in 10.0 mi SW 4.6 mph - N/A   Clear
6:55 AM 24.8 °F 19.1 °F 17.6 °F 74% 29.90 in 10.0 mi SW 4.6 mph - N/A   Clear
7:15 AM 24.8 °F 19.1 °F 19.4 °F 80% 29.90 in 10.0 mi SW 4.6 mph - N/A   Clear
7:35 AM 24.8 °F 16.1 °F 19.4 °F 80% 29.90 in 10.0 mi SSW 8.1 mph - N/A   Clear
7:55 AM 24.8 °F 16.9 °F 19.4 °F 80% 29.90 in 10.0 mi SSW 6.9 mph - N/A   Clear
8:15 AM 26.6 °F 19.1 °F 21.2 °F 80% 29.90 in 10.0 mi SSW 6.9 mph - N/A   Clear
8:35 AM 28.4 °F 21.2 °F 21.2 °F 74% 29.90 in 10.0 mi SSW 6.9 mph - N/A   Clear
8:55 AM 33.8 °F 26.4 °F 21.2 °F 60% 29.89 in 10.0 mi SSW 9.2 mph - N/A   Clear
9:15 AM 35.6 °F 27.5 °F 24.8 °F 65% 29.89 in 10.0 mi SSW 11.5 mph - N/A   Clear
9:35 AM 39.2 °F 30.5 °F 21.2 °F 49% 29.89 in 10.0 mi SSW 16.1 mph 19.6 mph N/A   Clear
9:55 AM 39.2 °F 30.5 °F 21.2 °F 49% 29.88 in 10.0 mi South 16.1 mph - N/A   Clear
10:15 AM 42.8 °F 34.5 °F 21.2 °F 42% 29.87 in 10.0 mi South 18.4 mph - N/A   Clear
10:35 AM 42.8 °F 35.1 °F 21.2 °F 42% 29.86 in 10.0 mi South 16.1 mph - N/A   Clear
10:55 AM 44.6 °F 37.8 °F 19.4 °F 37% 29.85 in 10.0 mi South 15.0 mph - N/A   Clear
11:15 AM 44.6 °F 36.4 °F 19.4 °F 37% 29.84 in 10.0 mi South 20.7 mph - N/A   Clear
11:35 AM 46.4 °F 38.5 °F 21.2 °F 37% 29.83 in 10.0 mi South 21.9 mph 25.3 mph N/A   Clear
11:55 AM 48.2 °F - 21.2 °F 34% 29.81 in 10.0 mi South 24.2 mph 28.8 mph N/A   Clear
12:15 PM 51.8 °F - 24.8 °F 35% 29.80 in 10.0 mi South 23.0 mph 29.9 mph N/A   Clear
12:35 PM 51.8 °F - 24.8 °F 35% 29.78 in 10.0 mi South 23.0 mph 27.6 mph N/A   Clear
12:55 PM 51.8 °F - 23.0 °F 33% 29.77 in 10.0 mi South 21.9 mph 29.9 mph N/A   Clear
1:15 PM 51.8 °F - 24.8 °F 35% 29.75 in 10.0 mi South 23.0 mph 26.5 mph N/A   Clear
1:35 PM 51.8 °F - 24.8 °F 35% 29.73 in 10.0 mi South 21.9 mph 26.5 mph N/A   Clear
1:55 PM 51.8 °F - 24.8 °F 35% 29.72 in 10.0 mi SSW 24.2 mph 29.9 mph N/A   Clear
2:15 PM 51.8 °F - 24.8 °F 35% 29.70 in 10.0 mi South 20.7 mph 26.5 mph N/A   Clear
2:35 PM 51.8 °F - 24.8 °F 35% 29.69 in 10.0 mi South 19.6 mph - N/A   Clear
2:55 PM 53.6 °F - 24.8 °F 33% 29.67 in 10.0 mi South 20.7 mph 26.5 mph N/A   Clear
3:15 PM 55.4 °F - 24.8 °F 31% 29.65 in 10.0 mi South 21.9 mph 28.8 mph N/A   Clear
3:35 PM 55.4 °F - 24.8 °F 31% 29.64 in 10.0 mi South 16.1 mph 25.3 mph N/A   Clear
3:55 PM 53.6 °F - 23.0 °F 30% 29.63 in 10.0 mi South 19.6 mph 25.3 mph N/A   Clear
4:15 PM 55.4 °F - 23.0 °F 29% 29.62 in 10.0 mi South 20.7 mph 24.2 mph N/A   Clear
4:35 PM 55.4 °F - 21.2 °F 26% 29.61 in 10.0 mi South 19.6 mph - N/A   Clear
4:55 PM 53.6 °F - 21.2 °F 28% 29.61 in 10.0 mi South 16.1 mph - N/A   Clear
5:15 PM 51.8 °F - 19.4 °F 28% 29.61 in 10.0 mi South 13.8 mph - N/A   Clear
5:35 PM 51.8 °F - 21.2 °F 30% 29.59 in 10.0 mi South 10.4 mph - N/A   Clear
5:55 PM 50.0 °F - 21.2 °F 32% 29.57 in 10.0 mi SSE 10.4 mph - N/A   Clear
6:15 PM 48.2 °F - 21.2 °F 34% 29.58 in 10.0 mi SSE 6.9 mph - N/A   Clear
6:35 PM 46.4 °F 42.4 °F 21.2 °F 37% 29.59 in 10.0 mi South 8.1 mph - N/A   Clear
6:55 PM 44.6 °F 40.2 °F 21.2 °F 39% 29.59 in 10.0 mi SSE 8.1 mph - N/A   Clear
7:15 PM 42.8 °F 39.3 °F 21.2 °F 42% 29.60 in 10.0 mi SSE 5.8 mph - N/A   Clear
7:35 PM 42.8 °F 37.5 °F 21.2 °F 42% 29.59 in 10.0 mi SSE 9.2 mph - N/A   Clear
7:55 PM 41.0 °F 34.3 °F 21.2 °F 45% 29.58 in 10.0 mi SSE 11.5 mph - N/A   Clear
8:15 PM 41.0 °F 35.8 °F 21.2 °F 45% 29.58 in 10.0 mi SSE 8.1 mph - N/A   Clear
8:35 PM 39.2 °F 34.2 °F 21.2 °F 49% 29.58 in 10.0 mi SE 6.9 mph - N/A   Clear
8:55 PM 37.4 °F 31.4 °F 21.2 °F 52% 29.57 in 10.0 mi ESE 8.1 mph - N/A   Clear
9:15 PM 37.4 °F 30.8 °F 23.0 °F 56% 29.56 in 10.0 mi SE 9.2 mph - N/A   Clear
9:35 PM 35.6 °F 28.0 °F 21.2 °F 56% 29.56 in 10.0 mi SE 10.4 mph - N/A   Clear
9:55 PM 35.6 °F 29.9 °F 23.0 °F 60% 29.56 in 10.0 mi SSE 6.9 mph - N/A   Clear
10:15 PM 35.6 °F 29.2 °F 21.2 °F 56% 29.55 in 10.0 mi SE 8.1 mph - N/A   Clear
10:35 PM 35.6 °F 28.6 °F 23.0 °F 60% 29.54 in 10.0 mi SE 9.2 mph - N/A   Clear
10:55 PM 33.8 °F 26.4 °F 23.0 °F 65% 29.53 in 10.0 mi ESE 9.2 mph - N/A   Clear
11:15 PM 32.0 °F 25.6 °F 23.0 °F 69% 29.53 in 10.0 mi ESE 6.9 mph - N/A   Clear
11:35 PM 32.0 °F 28.7 °F 21.2 °F 64% 29.53 in 10.0 mi SE 3.5 mph - N/A   Clear
11:55 PM 32.0 °F - 23.0 °F 69% 29.53 in 10.0 mi Calm Calm - N/A   Clear